Simultaneous Nadir Overpasses (SNOs) Predictions

Prediction of SNOs between AQUA and NOAA-19 Satellite Orbit:

Table of predicted SNOs for the next 14.0 days since TLE Epoch: 5/2/2015
Index Date (AQUA) Time (AQUA) Lat,Lon (AQUA) SZA (AQUA ) Date (NOAA-19) Time (NOAA-19) Lat,Lon (NOAA-19) SZA (NOAA-19 ) Distance(km) Time Diff (sec)
1 05/03/2015 21:26:27 79.82,-170.43 65.26 05/03/2015 21:25:54 79.82,-170.42 65.27 0.45 33
2 05/03/2015 22:15:49 -79.66, -1.58 115.00 05/03/2015 22:16:52 -79.65, -1.49 115.04 2.03 63
3 05/06/2015 03:00:08 -79.76, -73.40 115.48 05/06/2015 03:00:19 -79.75, -73.27 115.51 2.86 11
4 05/08/2015 07:44:27 -79.87,-145.31 115.92 05/08/2015 07:43:47 -79.87,-145.39 115.90 1.58 40
5 05/08/2015 08:33:49 79.71, 23.56 63.82 05/08/2015 08:34:41 79.71, 23.59 63.80 0.53 52
6 05/10/201
